Find NigeriaSat-1

NORAD ID: 27941 Int'l Des: 2003-042 Owner: NSRDA Country: NG operational
LEOCIRCULARRETROGRADESSO

Live Position

Loading 3D Globe...

About NigeriaSat-1

Description loading...

Upcoming Passes

Passes for default location (London). Set your location on the main map for personalized predictions.

Altitude History

Loading altitude history...

Two-Line Element Set

1 27941U 03042C 26106.50866767 .00000842 00000-0 91592-4 0 9996
2 27941 98.0061 297.4889 0043412 131.4596 229.0362 14.90164198214643
Epoch: Apr 16, 2026 • Age: 24 hours

Current Status

Altitude 597.4 km
Velocity 7.57 km/s
Sub-Earth Point 54.40°N, 107.82°W
Launch Date Sep 27, 2003
Age 22.5 years
Type other

Technical Details

Classification Payload
Mass 80.00 kg
Dry Mass 80.00 kg
Total Mass 80.00 kg
Length 0.60 m
Diameter 0.60 m
Span 6.60 m
Shape Box + Ant
Manufacturer SSTL
Bus Type SSTL-100
Phase Status In Orbit
Owner/State NSRDA/NG

Most Searched